Lahr, Germany

9:08 PM CET on November 13, 2019 (GMT +0100)
Lahr

Weather History for EDTL - September, 2019

Change the Weather History Date:

Monday, September 23, 2019

  Actual Average (WUND) Record (WUND)
Temperature  
Mean Temperature 62 °F -  
Max Temperature 68 °F - - (-1)
Min Temperature 57 °F - - (-1)
Degree Days  
Heating Degree Days 2    
Growing Degree Days 12 (Base 50)    
Moisture  
Dew Point 54 °F    
Average Humidity 75    
Maximum Humidity 94    
Minimum Humidity 51    
Precipitation  
Precipitation 0.00 in - - ()
Sea Level Pressure  
Sea Level Pressure 30.03 in    
Wind  
Wind Speed 6 mph ()    
Max Wind Speed 10 mph    
Max Gust Speed -    
Visibility 5.9 miles    
Events Rain    
Averages and records for this station are not official NWS values.
T = Trace of Precipitation, MM = Missing Value Source: Averaged Metar Reports

Daily Weather History Graph

Daily Weather History Graph

Search for Another Location

Airport or City:

Astronomy

Sep. 23, 2019 Rise Set
Actual Time 7:16 AM CEST 7:25 PM CEST
Civil Twilight 6:44 AM CEST 7:56 PM CEST
Nautical Twilight 6:08 AM CEST 8:33 PM CEST
Astronomical Twilight 5:30 AM CEST 9:11 PM CEST
Moon 12:13 AM CEST (9/23) 4:33 PM CEST (9/23)
Length of Visible Light 13h 11m
Length of Day
12h 09m
Last Quarter, 36% of the Moon is Illuminated
Sep 23
Last Quarter
Sep 28
New
Oct 5
First Quarter
Oct 13
Full
Oct 21
Last Quarter

Hourly Weather History & Observations

Time (CEST) Temp. Dew Point Humidity Pressure Visibility Wind Dir Wind Speed Gust Speed Precip Events Conditions
12:00 AM 64 °F 61 °F 87% 29.88 in 3 mi West 4.5 mph - - Rain Rain
3:00 AM 59 °F 57 °F 92% 29.99 in 6 mi South 6.7 mph - - Rain Light Rain
4:00 AM 58 °F 56 °F 91% 29.99 in 3 mi SW 6.7 mph - - Rain Rain
7:00 AM 58 °F 56 °F 89% 30.00 in 28 mi SSW 8.9 mph - - Rain Light Drizzle
7:50 AM 57.2 °F 55.4 °F 94% 30.01 in 5.6 mi South 5.8 mph - N/A Rain Light Rain
8:20 AM 57.2 °F 55.4 °F 94% 30.01 in 6.2 mi South 6.9 mph - N/A   Mostly Cloudy
8:50 AM 59.0 °F 55.4 °F 88% 30.04 in 6.2 mi South 6.9 mph - N/A   Mostly Cloudy
9:00 AM 58 °F 56 °F 89% 30.03 in 44 mi South 8.9 mph - -   Overcast
9:20 AM 59.0 °F 55.4 °F 88% 30.04 in 6.2 mi South 6.9 mph - N/A   Mostly Cloudy
9:50 AM 59.0 °F 55.4 °F 88% 30.04 in 6.2 mi South 8.1 mph - N/A   Mostly Cloudy
10:20 AM 59.0 °F 57.2 °F 94% 30.06 in 6.2 mi South 9.2 mph - N/A   Mostly Cloudy
10:50 AM 59.0 °F 57.2 °F 94% 30.06 in 6.2 mi South 9.2 mph - N/A   Scattered Clouds
11:20 AM 60.8 °F 57.2 °F 88% 30.06 in 6.2 mi South 8.1 mph - N/A   Partly Cloudy
11:50 AM 60.8 °F 57.2 °F 88% 30.06 in 6.2 mi SSW 9.2 mph - N/A   Partly Cloudy
12:20 PM 62.6 °F 57.2 °F 82% 30.06 in 6.2 mi SSW 8.1 mph - N/A   Partly Cloudy
12:50 PM 64.4 °F 55.4 °F 73% 30.04 in 6.2 mi WSW 6.9 mph - N/A   Partly Cloudy
1:20 PM 64.4 °F 51.8 °F 64% 30.04 in 6.2 mi WSW 9.2 mph - N/A   Partly Cloudy
1:50 PM 64.4 °F 51.8 °F 64% 30.04 in 6.2 mi WSW 10.4 mph - N/A   Scattered Clouds
2:20 PM 66.2 °F 51.8 °F 60% 30.04 in 6.2 mi SW 5.8 mph - N/A   Scattered Clouds
2:50 PM 68.0 °F 53.6 °F 60% 30.04 in 6.2 mi WSW 6.9 mph - N/A   Scattered Clouds
3:20 PM 68.0 °F 53.6 °F 60% 30.04 in 6.2 mi SSE 5.8 mph - N/A   Scattered Clouds
3:50 PM 68.0 °F 51.8 °F 56% 30.04 in 6.2 mi SSW 6.9 mph - N/A   Scattered Clouds
4:20 PM 68.0 °F 51.8 °F 56% 30.04 in 6.2 mi SW 6.9 mph - N/A   Mostly Cloudy
4:50 PM 68.0 °F 51.8 °F 56% 30.04 in 6.2 mi WSW 9.2 mph - N/A   Scattered Clouds
5:20 PM 66.2 °F 51.8 °F 60% 30.04 in 6.2 mi West 6.9 mph - N/A   Partly Cloudy
5:50 PM 66.2 °F 51.8 °F 60% 30.04 in 6.2 mi West 9.2 mph - N/A   Overcast
6:00 PM 66 °F 52 °F 51% 30.03 in 44 mi West 8.9 mph - -   Overcast
6:20 PM 64.4 °F 51.8 °F 64% 30.04 in 6.2 mi West 9.2 mph - N/A   Mostly Cloudy
6:50 PM 64.4 °F 51.8 °F 64% 30.04 in - West 5.8 mph - N/A   Clear
7:20 PM 62.6 °F 51.8 °F 68% 30.06 in - West 6.9 mph - N/A   Clear
7:50 PM 62.6 °F 51.8 °F 68% 30.06 in - WNW 4.6 mph - N/A   Clear
10:00 PM 60 °F 54 °F 76% 30.08 in 44 mi SSE 2.2 mph - -   Overcast